N7QMJ Weather Reports


time (UTC)temp
C
wind
direction
speed
KPH
gust
KPH
rain 1hr
cm
rain 24hr
cm
rain mn
cm
humidity
%
barometer
mb
20260503070446 10 0 0.0 0.0 0.00 0.23 0.00 81 1014.4
20260503054459 10 0 0.0 0.0 0.00 0.23 0.23 83 1015.1
20260503054445 10 0 0.0 0.0 0.00 0.23 0.23 83 1015.0
20260503053945 10 0 0.0 0.0 0.00 0.23 0.23 84 1015.0
20260503052946 10 264 0.0 0.0 0.00 0.23 0.23 84 1015.0
20260503052445 10 303 0.0 0.0 0.00 0.23 0.23 84 1014.9
20260503051944 10 257 0.0 0.0 0.00 0.23 0.23 84 1015.1
20260503051456 10 254 0.0 0.0 0.00 0.23 0.23 84 1015.4
20260503051444 10 254 0.0 0.0 0.00 0.23 0.23 84 1015.1
20260503050443 10 254 0.0 0.0 0.00 0.23 0.23 84 1015.6
20260503045942 10 255 0.0 0.0 0.00 0.23 0.23 84 1015.6
20260503045443 10 258 0.0 0.0 0.00 0.23 0.23 84 1015.6
20260503044943 10 258 0.0 0.0 0.00 0.23 0.23 83 1015.5
20260503044444 10 259 0.0 0.0 0.00 0.23 0.23 83 1015.4
20260503043944 10 320 0.0 0.0 0.00 0.23 0.23 83 1015.2
20260503043444 10 320 0.0 0.0 0.00 0.23 0.23 83 1015.4
20260503042956 10 0 0.0 0.0 0.00 0.23 0.23 83 1015.5
20260503042944 10 320 0.0 0.0 0.00 0.23 0.23 83 1015.4
20260503042443 10 0 0.0 0.0 0.00 0.23 0.23 83 1015.5
20260503041445 10 0 0.0 0.0 0.00 0.23 0.23 82 1015.5
20260503040943 10 0 0.0 0.0 0.00 0.23 0.23 82 1015.4
20260503040451 10 0 0.0 0.0 0.00 0.23 0.23 81 1015.2
20260503040441 10 0 0.0 0.0 0.00 0.23 0.23 82 1015.4
20260503035442 10 0 0.0 0.0 0.00 0.23 0.23 81 1015.2
20260503034942 10 0 0.0 0.0 0.00 0.23 0.23 81 1015.0
20260503034441 10 0 0.0 0.0 0.00 0.23 0.23 80 1014.9
20260503033954 10 0 0.0 0.0 0.03 0.23 0.23 79 1014.5
20260503033942 10 0 0.0 0.0 0.00 0.23 0.23 80 1014.9
20260503032941 11 0 0.0 0.0 0.03 0.23 0.23 79 1014.4
20260503032443 11 0 0.0 0.0 0.03 0.23 0.23 79 1014.3
20260503031944 11 0 0.0 8.0 0.03 0.23 0.23 79 1014.4
20260503031441 11 120 0.0 8.0 0.03 0.23 0.23 79 1014.4
20260503030941 11 228 0.0 0.0 0.03 0.23 0.23 79 1014.2
20260503030442 11 227 0.0 4.8 0.03 0.23 0.23 79 1013.8
20260503025942 11 0 0.0 4.8 0.03 0.23 0.23 79 1014.0
20260503025442 11 303 0.0 0.0 0.03 0.23 0.23 80 1013.8
20260503024953 11 354 0.0 0.0 0.03 0.23 0.23 79 1014.2
20260503024940 11 300 0.0 0.0 0.03 0.23 0.23 79 1014.1
20260503023941 11 309 0.0 0.0 0.03 0.23 0.23 80 1014.5
20260503023439 11 252 0.0 0.0 0.00 0.20 0.23 79 1015.0
20260503022943 11 250 0.0 0.0 0.00 0.20 0.20 80 1015.0
20260503022439 11 0 0.0 0.0 0.00 0.20 0.20 79 1014.9
20260503021942 11 317 0.0 0.0 0.00 0.20 0.20 78 1014.7
20260503021441 11 323 0.0 0.0 0.05 0.20 0.20 78 1014.5
20260503020955 12 0 0.0 0.0 0.08 0.20 0.20 78 1014.3
20260503020941 11 0 0.0 3.2 0.08 0.20 0.20 77 1014.7
20260503020441 11 0 0.0 3.2 0.08 0.20 0.20 77 1014.5
20260503015941 12 0 0.0 0.0 0.08 0.20 0.20 78 1014.4
20260503015612 12 0 0.0 3.2 0.08 0.20 0.20 77 1014.3
20260503014440 12 0 0.0 3.2 0.08 0.20 0.20 77 1014.5
20260503013939 12 0 0.0 0.0 0.08 0.20 0.20 78 1014.5
20260503013439 12 0 0.0 0.0 0.08 0.20 0.20 78 1014.7
20260503012938 12 0 0.0 1.6 0.13 0.20 0.20 78 1014.8
20260503012439 12 0 0.0 6.4 0.20 0.20 0.20 76 1014.8
20260503011940 12 0 0.0 6.4 0.20 0.20 0.20 75 1015.0
20260503011448 13 147 0.0 0.0 0.13 0.13 0.13 71 1015.1
20260503011437 12 41 0.0 1.6 0.15 0.15 0.15 74 1015.1
20260503011050 13 147 0.0 0.0 0.13 0.13 0.13 71 1015.0
20260503005938 13 61 0.0 0.0 0.13 0.13 0.13 70 1014.9
20260503005437 13 45 0.0 0.0 0.13 0.13 0.13 70 1014.7
20260503004937 14 313 0.0 0.0 0.13 0.13 0.13 69 1014.2
20260503004437 14 305 0.0 0.0 0.13 0.13 0.13 67 1014.1
20260503003935 15 0 0.0 0.0 0.13 0.13 0.13 66 1014.0
20260503003437 15 0 0.0 0.0 0.13 0.13 0.13 61 1014.0
20260503002946 16 0 0.0 0.0 0.00 0.00 0.00 43 1014.0
20260503002935 16 0 0.0 0.0 0.08 0.08 0.10 58 1014.0
20260503002610 16 0 0.0 0.0 0.00 0.00 0.00 42 1013.7
20260503001436 16 0 0.0 0.0 0.00 0.00 0.00 42 1013.5
20260503000936 16 0 0.0 0.0 0.00 0.00 0.00 40 1013.1
20260503000437 16 0 0.0 0.0 0.00 0.00 0.00 40 1013.0
20260502235936 17 0 0.0 0.0 0.00 0.00 0.00 39 1012.7
20260502235436 17 0 0.0 0.0 0.00 0.00 0.00 39 1012.7
20260502234935 17 0 0.0 4.8 0.00 0.00 0.00 39 1012.6
20260502234436 17 0 0.0 4.8 0.00 0.00 0.00 39 1012.6
20260502233935 17 0 0.0 9.7 0.00 0.00 0.00 39 1012.8
20260502233446 17 0 3.2 17.7 0.00 0.00 0.00 38 1012.8
20260502233435 17 0 0.0 16.1 0.00 0.00 0.00 39 1012.8
20260502232437 17 0 6.4 17.7 0.00 0.00 0.00 38 1012.9
20260502231936 17 0 0.0 3.2 0.00 0.00 0.00 37 1012.9
20260502231433 17 0 0.0 9.7 0.00 0.00 0.00 38 1013.0
20260502230933 17 0 1.6 14.5 0.00 0.00 0.00 38 1013.0
20260502230434 17 0 1.6 14.5 0.00 0.00 0.00 37 1013.0
20260502225934 17 0 0.0 14.5 0.00 0.00 0.00 38 1013.1
20260502225433 17 0 0.0 17.7 0.00 0.00 0.00 38 1013.1
20260502224935 17 0 6.4 17.7 0.00 0.00 0.00 38 1013.1
20260502224436 17 0 1.6 16.1 0.00 0.00 0.00 39 1013.3
20260502223932 17 0 3.2 20.9 0.00 0.00 0.00 37 1013.5
20260502223432 17 0 1.6 20.9 0.00 0.00 0.00 39 1013.7
20260502222934 17 0 1.6 20.9 0.00 0.00 0.00 38 1013.7
20260502222433 18 0 1.6 20.9 0.00 0.00 0.00 38 1013.6
20260502221932 18 0 0.0 19.3 0.00 0.00 0.00 39 1013.6
20260502221434 18 0 0.0 1.6 0.00 0.00 0.00 38 1013.6
20260502220943 18 0 3.2 20.9 0.00 0.00 0.00 33 1013.4
20260502220933 18 0 0.0 20.9 0.00 0.00 0.00 35 1013.5
20260502215933 19 0 3.2 11.3 0.00 0.00 0.00 33 1013.5
20260502215432 19 0 0.0 0.0 0.00 0.00 0.00 33 1013.6
20260502214942 19 0 0.0 0.0 0.00 0.00 0.00 33 1013.7
20260502214932 19 0 0.0 0.0 0.00 0.00 0.00 33 1013.6
20260502213933 19 0 0.0 0.0 0.00 0.00 0.00 32 1013.8
20260502213432 19 0 0.0 0.0 0.00 0.00 0.00 33 1013.7
20260502212932 19 0 0.0 0.0 0.00 0.00 0.00 33 1013.8
20260502212443 19 0 0.0 14.5 0.00 0.00 0.00 32 1014.1
20260502212432 19 0 0.0 6.4 0.00 0.00 0.00 33 1013.8
20260502211432 19 0 1.6 16.1 0.00 0.00 0.00 32 1014.1
20260502210941 19 0 3.2 14.5 0.00 0.00 0.00 33 1014.1
20260502210932 19 0 4.8 16.1 0.00 0.00 0.00 33 1014.2
20260502205932 19 0 3.2 14.5 0.00 0.00 0.00 32 1014.2
20260502205431 19 0 3.2 14.5 0.00 0.00 0.00 31 1014.2
20260502204931 19 0 4.8 14.5 0.00 0.00 0.00 30 1014.3
20260502204443 20 0 1.6 29.0 0.00 0.00 0.00 29 1014.3
20260502204431 20 0 1.6 29.0 0.00 0.00 0.00 30 1014.3
20260502203430 20 0 8.0 24.1 0.00 0.00 0.00 26 1014.2
20260502202932 20 0 11.3 24.1 0.00 0.00 0.00 26 1014.1
20260502202430 20 0 0.0 8.0 0.00 0.00 0.00 27 1014.3
20260502201929 20 0 0.0 1.6 0.00 0.00 0.00 27 1014.2
20260502201429 21 0 0.0 3.2 0.00 0.00 0.00 27 1014.2
20260502200930 21 0 0.0 9.7 0.00 0.00 0.00 26 1014.2
20260502200429 21 0 1.6 9.7 0.00 0.00 0.00 27 1014.2
20260502195931 21 0 0.0 0.0 0.00 0.00 0.00 26 1014.3
20260502195429 21 0 0.0 8.0 0.00 0.00 0.00 27 1014.3
20260502194929 21 0 0.0 8.0 0.00 0.00 0.00 28 1014.3
20260502194430 21 0 0.0 0.0 0.00 0.00 0.00 27 1014.3
20260502193931 21 0 0.0 1.6 0.00 0.00 0.00 27 1014.4
20260502193441 21 0 0.0 11.3 0.00 0.00 0.00 27 1014.4
20260502193429 21 0 0.0 1.6 0.00 0.00 0.00 27 1014.4
20260502193057 21 0 0.0 11.3 0.00 0.00 0.00 27 1014.4
20260502191938 21 0 0.0 4.8 0.00 0.00 0.00 27 1014.5
20260502191927 21 0 0.0 4.8 0.00 0.00 0.00 26 1014.4
20260502190929 21 0 0.0 1.6 0.00 0.00 0.00 26 1014.4
20260502190428 21 0 0.0 0.0 0.00 0.00 0.00 25 1014.5
20260502185927 21 0 0.0 0.0 0.00 0.00 0.00 26 1014.5
20260502185427 21 0 0.0 0.0 0.00 0.00 0.00 26 1014.7
20260502184927 21 0 0.0 0.0 0.00 0.00 0.00 26 1014.5
20260502184427 21 0 0.0 0.0 0.00 0.00 0.00 25 1014.5
20260502183926 21 110 0.0 0.0 0.00 0.00 0.00 26 1014.7
20260502183426 21 131 0.0 0.0 0.00 0.00 0.00 27 1014.8
20260502182926 21 320 0.0 0.0 0.00 0.00 0.00 28 1014.8
20260502182440 20 0 0.0 0.0 0.00 0.00 0.00 28 1015.0
20260502182427 21 48 0.0 0.0 0.00 0.00 0.00 28 1014.9
20260502182057 20 0 0.0 0.0 0.00 0.00 0.00 29 1015.0
20260502180926 20 0 0.0 0.0 0.00 0.00 0.00 29 1014.9
20260502180436 20 0 0.0 0.0 0.00 0.00 0.00 30 1015.0
20260502180427 20 0 0.0 0.0 0.00 0.00 0.00 30 1014.9
20260502163923 17 0 0.0 0.0 0.00 0.00 0.00 35 1015.1
20260502163555 17 0 0.0 0.0 0.00 0.00 0.00 39 1015.0
20260502162423 16 0 0.0 0.0 0.00 0.00 0.00 41 1015.0
20260502161924 16 0 0.0 0.0 0.00 0.00 0.00 42 1015.0
20260502161424 16 0 0.0 0.0 0.00 0.00 0.00 43 1015.1
20260502160925 15 56 0.0 0.0 0.00 0.00 0.00 46 1015.1
20260502160422 15 52 0.0 0.0 0.00 0.00 0.00 44 1015.2
20260502151921 11 0 0.0 0.0 0.00 0.00 0.00 57 1015.2
20260502151421 10 0 0.0 0.0 0.00 0.00 0.00 60 1015.2
20260502150923 10 0 0.0 0.0 0.00 0.00 0.00 62 1015.1
20260502150422 9 0 0.0 0.0 0.00 0.00 0.00 65 1015.1
20260502130421 6 268 0.0 0.0 0.00 0.00 0.00 65 1014.3
20260502123416 5 269 0.0 0.0 0.00 0.00 0.00 64 1014.2
20260502122917 5 269 0.0 0.0 0.00 0.00 0.00 63 1014.2
20260502122420 5 269 0.0 0.0 0.00 0.00 0.00 63 1014.2
20260502121929 5 269 0.0 0.0 0.00 0.00 0.00 62 1014.2
20260502121918 5 269 0.0 0.0 0.00 0.00 0.00 61 1014.2
20260502120916 5 269 0.0 0.0 0.00 0.00 0.00 63 1014.2
20260502120417 5 269 0.0 0.0 0.00 0.00 0.00 64 1014.2
20260502115918 5 269 0.0 0.0 0.00 0.00 0.00 64 1014.2
20260502115416 5 269 0.0 0.0 0.00 0.00 0.00 62 1014.3
20260502114918 6 269 0.0 0.0 0.00 0.00 0.00 61 1014.3
20260502114416 6 269 0.0 0.0 0.00 0.00 0.00 62 1014.3
20260502113914 6 269 0.0 0.0 0.00 0.00 0.00 63 1014.3
20260502113427 6 269 0.0 0.0 0.00 0.00 0.00 62 1014.3
20260502113416 6 269 0.0 0.0 0.00 0.00 0.00 63 1014.3
20260502112415 6 269 0.0 0.0 0.00 0.00 0.00 60 1014.2
20260502111926 6 269 0.0 0.0 0.00 0.00 0.00 58 1014.2
20260502111915 6 269 0.0 0.0 0.00 0.00 0.00 59 1014.3
20260502110916 6 269 0.0 0.0 0.00 0.00 0.00 58 1014.2
20260502110416 6 269 0.0 0.0 0.00 0.00 0.00 58 1014.2
20260502105915 7 0 0.0 0.0 0.00 0.00 0.00 57 1014.1
20260502105415 7 0 0.0 0.0 0.00 0.00 0.00 56 1014.1
20260502104916 7 0 0.0 0.0 0.00 0.00 0.00 56 1014.2
20260502104416 7 0 0.0 0.0 0.00 0.00 0.00 56 1014.3
20260502103926 7 0 0.0 0.0 0.00 0.00 0.00 56 1014.2
20260502103915 7 0 0.0 0.0 0.00 0.00 0.00 56 1014.2
20260502103543 7 0 0.0 0.0 0.00 0.00 0.00 55 1014.2
20260502103037 7 0 0.0 0.0 0.00 0.00 0.00 55 1014.2
20260502101915 7 0 0.0 0.0 0.00 0.00 0.00 55 1014.2
20260502101414 7 0 0.0 0.0 0.00 0.00 0.00 55 1014.1
20260502100915 7 0 0.0 0.0 0.00 0.00 0.00 56 1014.2
20260502100415 7 0 0.0 0.0 0.00 0.00 0.00 54 1014.2
20260502091412 8 0 0.0 0.0 0.00 0.00 0.00 51 1014.4
20260502090912 8 0 0.0 0.0 0.00 0.00 0.00 52 1014.5
20260502090413 8 0 0.0 0.0 0.00 0.00 0.00 52 1014.7
20260502071411 10 0 0.0 0.0 0.00 0.00 0.00 37 1015.4
20260502070911 10 0 0.0 0.0 0.00 0.00 0.00 37 1015.4